Hourly Data Report for February 27, 2021

KUGAARUK CLIMATE
NUNAVUT
Current Station Operator: ECCC - MSC

68°32'15.060" N
89°47'47.020" W
15.80 m
2303094
71407
NBB

Download Data

Hourly Data (February 2021)
Hourly Data Report for February 27, 2021
TIME
LST
Temp Definition
°C
Dew Point Definition
°C
Rel Hum Definition
%
Precip. Amount Definition
mm

Wind Dir Definition
10's deg

Wind Spd Definition
km/h
Visibility Definition
km
Stn Press Definition
kPa
Hmdx Definition


Wind Chill Definition


Weather Definition


00:00 -33.9 -37.4 71 0.0 24 18   99.23   -47 LegendNANA
01:00 -33.3 -36.8 71 0.0 25 16   99.18   -46 LegendNANA
02:00 -32.5 -36.1 71 0.0 25 15   99.15   -44 LegendNANA
03:00 -31.9 -35.2 72 0.0 27 8   99.12   -40 LegendNANA
04:00 -30.6 -34.2 70 0.0 30 10   99.08   -40 LegendNANA
05:00 -30.4 -34.2 69 0.0 33 14   99.08   -42 LegendNANA
06:00 -30.5 -34.4 69 0.0 32 13   99.07   -41 LegendNANA
07:00 -30.5 -34.3 69 0.0 31 13   99.05   -41 LegendNANA
08:00 -30.6 -34.4 70 0.0 29 11   99.05   -40 LegendNANA
09:00 -30.5 -34.5 68 0.0 30 14   99.03   -42 LegendNANA
10:00 -30.2 -34.4 66 0.0 30 14   99.03   -41 LegendNANA
11:00 -30.0 -34.4 66 0.0 30 14   99.04   -41 LegendNANA
12:00 -31.1 -35.3 67 0.0 26 21   99.06   -45 LegendNANA
13:00 -31.5 -35.4 68 0.0 26 22   99.09   -46 LegendNANA
14:00 -31.6 -35.6 68 0.0 27 21   99.13   -45 LegendNANA
15:00 -32.1 -35.8 70 0.0 26 21   99.16   -46 LegendNANA
16:00 -32.6 -36.2 70 0.0 24 24   99.20   -48 LegendNANA
17:00 -32.6 -36.3 70 0.0 26 22   99.22   -47 LegendNANA
18:00 -32.8 -36.4 70 0.0 24 18   99.23   -46 LegendNANA
19:00 -32.8 -36.5 70 0.0 24 18   99.25   -46 LegendNANA
20:00 -33.3 -37.2 68 0.0 25 22   99.26   -48 LegendNANA
21:00 -33.0 -36.8 69 0.0 23 19   99.24   -47 LegendNANA
22:00 -32.6 -36.6 68 0.0 24 23   99.23   -47 LegendNANA
23:00 -32.6 -36.6 68 0.0 23 23   99.24   -47 LegendNANA

Notes on Data Quality.

Legend

  • E = Estimated
  • M = Missing
  • NA = Not Available*
  • [empty] = Indicates an unobserved value
Date modified: